COSMOS 1603 DEB, 43312

Orbit data source: Space-Track

COSMOS 1603 DEB, 43312 is space debris in LEO originally from a launch on Fri, 28 Sep 1984 UTC launched from the Tyuratam Missile And Space Complex (TTMTR). Debris objects in space refer to the collection of defunct objects orbiting the Earth. Examples of debris include non-operational satellites, rocket bodies, and fragments generated from explosions, collisions, or faulty payload assembly.

Loading next visibility...
Identifier
43312, 1984-106AE
Orbit
LEO
Country
Flag of CISCIS
Related business
Manufacturer
Unknown
Mission
Spacecraft
Bus & Motor
Unknown
Mass
Unknown
Launch date (UTC)
1984-09-28 (41 years ago)
Launch vehicle
Unknown
Launch site
Tyuratam Missile And Space Complex (TTMTR)
Object type
Payload
Rocket body
Debris
Shape & HBR
Unknown
Radar Cross Section
Small (<0.1 m²)

Expand to show TLE details & history
Last TLE update: 6 days ago

TLE from 6 days ago
0 COSMOS 1603 DEB
1 43312U 84106AE  25256.68924466  .00000992  00000-0  47810-3 0  9990
2 43312  71.0214 244.1697 0021075 288.9331  70.9511 14.21040156495399
Epoch: 2025-09-13T16:32Z
TLE epoch observation values (Epoch: 2025-09-13T16:32:30.738Z)
Latitude
0.00002°
Longitude
3.12263°
Altitude
819.321 km
Speed
7.446 km/s
True Right ascension
16h 16m 40s
True Declination
0° 00' 00"
Sunlit
Object was in daylight at epoch
Visualization orbit readout
Latitude
Unknown
Longitude
Unknown
Altitude
Unknown
Speed
Unknown
Apparent Right ascension
Unknown
Apparent Declination
Unknown
Sunlit
N/A
Visualization observer readout
Local Sidereal Time
22:24:45
Azimuth
Unknown
Elevation
Unknown
Doppler factor
Unknown
Orbital elements
Apogee altitude
834.924 km
Perigee altitude
804.584 km
Semi-major axis
7,197.891 km
Eccentricity
0.00211
Inclination
71.0214°
RAAN
244.1697°
Arg. of periapsis
288.9331°
True anomaly
71.17957°
Mean anomaly
70.9511°
Eccentric anomaly
71.06532°
Mean motion
3.55415 °/min
Orbital period
101.29 mins
BSTAR
0.0004781
Loading maneuver chart data...
Computing Atmospheric mass density...
Loading historical data...
Loading historical data...
Loading historical data...
Loading historical data...
Loading historical data...
Loading historical data...
Loading historical data...

Documentation

Showing up to 5 results
|